When you browse on this site, cookies collect data to enhance your experience and personalize the content and advertising you see.
Visit our Privacy Policy to learn more. By continuing to use the site, you agree to this use of cookies and data.
  • In Österreich
  • Länderverzeichnis
  • Für 7 Tage
  • Wassertemperatur
  • Wetterkarte
  • News
  • Widgets
  • user-avatar
    Anmelden

    Stündliche Wetter Silvia

    Heute, 22 September, Sonntag

    Zeit Temperatur Niederschläge Wind Luftdruck Luftfeuchtigkeit
    00:00 +10°C° 0 mm 1 m/S 560 mmHg 93%
    01:00 +10°C° 0 mm 1 m/S 560 mmHg 92%
    02:00 +10°C° 0 mm 1 m/S 559 mmHg 92%
    03:00 +10°C° 0 mm 1 m/S 559 mmHg 92%
    04:00 +10°C° 0 mm 1 m/S 559 mmHg 92%
    05:00 +10°C° 0 mm 1 m/S 560 mmHg 91%
    06:00 +11°C° 0 mm 1 m/S 560 mmHg 90%
    07:00 +12°C° 0 mm 1 m/S 561 mmHg 89%
    08:00 +14°C° 0 mm 1 m/S 563 mmHg 78%
    09:00 +18°C° 0 mm 1 m/S 564 mmHg 67%
    10:00 +19°C° 0 mm 2 m/S 565 mmHg 57%
    11:00 +19°C° 0.5 mm 2 m/S 565 mmHg 60%
    12:00 +19°C° 0.5 mm 2 m/S 564 mmHg 63%
    13:00 +19°C° 0.5 mm 2 m/S 564 mmHg 66%
    14:00 +18°C° 1.4 mm 2 m/S 563 mmHg 72%
    15:00 +18°C° 1.4 mm 1 m/S 562 mmHg 78%
    16:00 +18°C° 1.4 mm 1 m/S 561 mmHg 84%
    17:00 +15°C° 1 mm 1 m/S 561 mmHg 87%
    18:00 +14°C° 1 mm 1 m/S 561 mmHg 91%
    19:00 +12°C° 1 mm 1 m/S 561 mmHg 94%
    20:00 +12°C° 0.3 mm 1 m/S 560 mmHg 94%
    21:00 +11°C° 0.3 mm 1 m/S 560 mmHg 93%
    22:00 +10°C° 0.3 mm 1 m/S 560 mmHg 93%
    23:00 +10°C° 0 mm 1 m/S 560 mmHg 93%

    Morgen, 23 September, Montag

    Zeit Temperatur Niederschläge Wind Luftdruck Luftfeuchtigkeit
    00:00 +10°C° 0 mm 1 m/S 560 mmHg 92%
    01:00 +10°C° 0 mm 1 m/S 559 mmHg 92%
    02:00 +10°C° 0 mm 1 m/S 560 mmHg 91%
    03:00 +10°C° 0 mm 1 m/S 560 mmHg 91%
    04:00 +10°C° 0 mm 1 m/S 560 mmHg 90%
    05:00 +11°C° 0 mm 1 m/S 560 mmHg 89%
    06:00 +11°C° 0 mm 1 m/S 561 mmHg 87%
    07:00 +12°C° 0 mm 1 m/S 561 mmHg 85%
    08:00 +14°C° 0 mm 1 m/S 563 mmHg 73%
    09:00 +17°C° 0 mm 2 m/S 564 mmHg 61%
    10:00 +20°C° 0 mm 2 m/S 566 mmHg 49%
    11:00 +20°C° 0.1 mm 2 m/S 565 mmHg 47%
    12:00 +21°C° 0.1 mm 2 m/S 565 mmHg 46%
    13:00 +23°C° 0.1 mm 2 m/S 565 mmHg 44%
    14:00 +20°C° 0.5 mm 2 m/S 564 mmHg 51%
    15:00 +19°C° 0.5 mm 2 m/S 563 mmHg 59%
    16:00 +18°C° 0.5 mm 2 m/S 562 mmHg 67%
    17:00 +16°C° 0.3 mm 1 m/S 561 mmHg 75%
    18:00 +14°C° 0.3 mm 1 m/S 560 mmHg 82%
    19:00 +12°C° 0.3 mm 1 m/S 559 mmHg 90%
    20:00 +11°C° 0 mm 1 m/S 559 mmHg 89%
    21:00 +11°C° 0 mm 1 m/S 560 mmHg 89%
    22:00 +10°C° 0 mm 1 m/S 560 mmHg 88%
    23:00 +10°C° 0 mm 1 m/S 560 mmHg 88%

    übermorgen, 24 September, Dienstag

    Zeit Temperatur Niederschläge Wind Luftdruck Luftfeuchtigkeit
    00:00 +10°C° 0 mm 1 m/S 560 mmHg 88%
    01:00 +10°C° 0 mm 1 m/S 559 mmHg 88%
    02:00 +10°C° 0 mm 1 m/S 559 mmHg 87%
    03:00 +10°C° 0 mm 1 m/S 559 mmHg 86%
    04:00 +10°C° 0 mm 1 m/S 559 mmHg 86%
    05:00 +10°C° 0 mm 1 m/S 560 mmHg 84%
    06:00 +11°C° 0 mm 1 m/S 561 mmHg 83%
    07:00 +12°C° 0 mm 1 m/S 561 mmHg 82%
    08:00 +14°C° 0 mm 1 m/S 562 mmHg 76%
    09:00 +16°C° 0 mm 1 m/S 564 mmHg 70%
    10:00 +19°C° 0 mm 1 m/S 565 mmHg 64%
    11:00 +19°C° 0.1 mm 1 m/S 564 mmHg 61%
    12:00 +19°C° 0.1 mm 2 m/S 564 mmHg 59%
    13:00 +20°C° 0.1 mm 2 m/S 564 mmHg 57%
    14:00 +20°C° 0.9 mm 1 m/S 563 mmHg 66%
    15:00 +19°C° 0.9 mm 1 m/S 562 mmHg 74%
    16:00 +18°C° 0.9 mm 1 m/S 561 mmHg 83%
    17:00 +15°C° 1 mm 1 m/S 561 mmHg 87%
    18:00 +14°C° 1 mm 1 m/S 561 mmHg 92%
    19:00 +13°C° 1 mm 1 m/S 560 mmHg 96%
    20:00 +12°C° 0.5 mm 1 m/S 560 mmHg 95%
    21:00 +12°C° 0.5 mm 1 m/S 561 mmHg 95%
    22:00 +11°C° 0.5 mm 1 m/S 561 mmHg 95%
    23:00 +11°C° 0.3 mm 1 m/S 560 mmHg 94%

    25 September, Mittwoch

    Zeit Temperatur Niederschläge Wind Luftdruck Luftfeuchtigkeit
    00:00 +11°C° 0.3 mm 1 m/S 560 mmHg 93%
    01:00 +11°C° 0.3 mm 1 m/S 560 mmHg 93%
    02:00 +11°C° 0.1 mm 1 m/S 560 mmHg 92%
    03:00 +11°C° 0.1 mm 1 m/S 560 mmHg 92%
    04:00 +11°C° 0.1 mm 1 m/S 560 mmHg 91%
    05:00 +11°C° 0 mm 1 m/S 560 mmHg 90%
    06:00 +12°C° 0 mm 1 m/S 561 mmHg 88%
    07:00 +12°C° 0 mm 1 m/S 562 mmHg 87%
    08:00 +14°C° 0.1 mm 1 m/S 563 mmHg 80%
    09:00 +16°C° 0.1 mm 1 m/S 564 mmHg 72%
    10:00 +18°C° 0.1 mm 2 m/S 565 mmHg 65%
    11:00 +17°C° 0.8 mm 2 m/S 564 mmHg 70%
    12:00 +18°C° 0.8 mm 1 m/S 563 mmHg 74%
    13:00 +16°C° 0.8 mm 1 m/S 562 mmHg 79%
    14:00 +16°C° 0.9 mm 1 m/S 562 mmHg 80%
    15:00 +16°C° 0.9 mm 1 m/S 562 mmHg 82%
    16:00 +16°C° 0.9 mm 1 m/S 561 mmHg 84%
    17:00 +15°C° 0.7 mm 1 m/S 561 mmHg 88%
    18:00 +13°C° 0.7 mm 1 m/S 560 mmHg 92%
    19:00 +12°C° 0.7 mm 1 m/S 560 mmHg 95%
    20:00 +11°C° 0 mm 1 m/S 560 mmHg 94%
    21:00 +11°C° 0 mm 1 m/S 560 mmHg 93%
    22:00 +11°C° 0 mm 1 m/S 560 mmHg 92%
    23:00 +10°C° 0 mm 1 m/S 560 mmHg 92%

    26 September, Donnerstag

    Zeit Temperatur Niederschläge Wind Luftdruck Luftfeuchtigkeit
    00:00 +10°C° 0 mm 1 m/S 560 mmHg 92%
    01:00 +10°C° 0 mm 1 m/S 559 mmHg 92%
    02:00 +10°C° 0 mm 1 m/S 559 mmHg 92%
    03:00 +10°C° 0 mm 1 m/S 559 mmHg 91%
    04:00 +11°C° 0 mm 1 m/S 559 mmHg 90%
    05:00 +11°C° 0 mm 1 m/S 560 mmHg 89%
    06:00 +12°C° 0 mm 1 m/S 561 mmHg 88%
    07:00 +12°C° 0 mm 1 m/S 562 mmHg 87%
    08:00 +15°C° 0 mm 1 m/S 563 mmHg 77%
    09:00 +17°C° 0 mm 2 m/S 564 mmHg 67%
    10:00 +19°C° 0 mm 2 m/S 565 mmHg 58%
    11:00 +20°C° 0.4 mm 2 m/S 565 mmHg 58%
    12:00 +20°C° 0.4 mm 2 m/S 564 mmHg 57%
    13:00 +20°C° 0.4 mm 2 m/S 564 mmHg 57%
    14:00 +20°C° 0.6 mm 2 m/S 563 mmHg 61%
    15:00 +19°C° 0.6 mm 2 m/S 562 mmHg 65%
    16:00 +18°C° 0.6 mm 2 m/S 562 mmHg 68%
    17:00 +16°C° 0.4 mm 2 m/S 561 mmHg 76%
    18:00 +14°C° 0.4 mm 1 m/S 560 mmHg 83%
    19:00 +12°C° 0.4 mm 1 m/S 559 mmHg 90%
    20:00 +11°C° 0 mm 1 m/S 559 mmHg 89%
    21:00 +11°C° 0 mm 1 m/S 559 mmHg 89%
    22:00 +10°C° 0 mm 1 m/S 560 mmHg 88%
    23:00 +10°C° 0 mm 1 m/S 559 mmHg 87%

    27 September, Freitag

    Zeit Temperatur Niederschläge Wind Luftdruck Luftfeuchtigkeit
    00:00 +10°C° 0 mm 1 m/S 559 mmHg 86%
    01:00 +9°C° 0 mm 1 m/S 559 mmHg 85%
    02:00 +9°C° 0 mm 1 m/S 559 mmHg 85%
    03:00 +9°C° 0 mm 1 m/S 559 mmHg 84%
    04:00 +9°C° 0 mm 1 m/S 558 mmHg 84%
    05:00 +10°C° 0 mm 1 m/S 559 mmHg 82%
    06:00 +11°C° 0 mm 1 m/S 560 mmHg 80%
    07:00 +11°C° 0 mm 1 m/S 561 mmHg 78%
    08:00 +14°C° 0 mm 1 m/S 563 mmHg 69%
    09:00 +17°C° 0 mm 2 m/S 564 mmHg 60%
    10:00 +19°C° 0 mm 2 m/S 566 mmHg 52%
    11:00 +20°C° 0.1 mm 2 m/S 565 mmHg 52%
    12:00 +21°C° 0.1 mm 1 m/S 565 mmHg 53%
    13:00 +21°C° 0.1 mm 1 m/S 564 mmHg 54%
    14:00 +20°C° 0.5 mm 1 m/S 563 mmHg 60%
    15:00 +19°C° 0.5 mm 1 m/S 562 mmHg 67%
    16:00 +19°C° 0.5 mm 1 m/S 562 mmHg 73%
    17:00 +16°C° 0.7 mm 1 m/S 561 mmHg 80%
    18:00 +14°C° 0.7 mm 1 m/S 561 mmHg 87%
    19:00 +12°C° 0.7 mm 1 m/S 560 mmHg 95%
    20:00 +12°C° 0.1 mm 1 m/S 560 mmHg 94%
    21:00 +12°C° 0.1 mm 1 m/S 560 mmHg 93%
    22:00 +11°C° 0.1 mm 1 m/S 560 mmHg 92%
    23:00 +11°C° 0 mm 1 m/S 560 mmHg 92%
    Mehr zeigen